Regional Weather Roundup
Issued by NWS Cleveland, OH

Home | Current Version | Previous Version | Graphics & Text | Print | Product List | Glossary On
Versions: 1 2 3 4 5 6 7 8 9 10 11 12 13 14 15 16 17 18 19 20 21 22 23 24 25 26 27 28 29 30 31 32 33 34 35 36 37 38 39 40 41 42 43 44 45 46 47 48 49 50
945
ASUS41 KCLE 211112
RWRCLE
OHIO REGIONAL WEATHER ROUNDUP
NATIONAL WEATHER SERVICE WILMINGTON, OH
700 AM EDT SAT OCT 21 2017

NOTE: "FAIR" INDICATES FEW OR NO CLOUDS BELOW 12,000 FEET WITH NO
SIGNIFICANT WEATHER AND/OR OBSTRUCTIONS TO VISIBILITY.

OHZ001>008-015>018-024>027-034-035-043-044-211200-
   NORTHWEST OHIO

CITY           SKY/WX    TMP DP  RH WIND       PRES   REMARKS
DEFIANCE       FAIR      50  47  89 SE5       30.20R
FINDLAY        FAIR      53  46  77 SE6       30.21R
TOLEDO EXPRESS FAIR      50  49  96 VRB3      30.20R
TOLEDO EXEC    FAIR      51  45  79 S3        30.22R
LIMA           FAIR      55  51  86 S7        30.21R
$$

OHZ009>014-019>023-028>033-038-089-211200-
   NORTHEAST OHIO

CITY           SKY/WX    TMP DP  RH WIND       PRES   REMARKS
CLE-HOPKINS    FAIR      51  40  65 CALM      30.26R
CLE-LAKEFRONT  FAIR      55  40  56 S12       30.24R
CUY CO. ARPT   CLEAR     55  43  62 SE12      30.25
LORAIN-ELYRIA  FAIR      47  39  74 CALM      30.25R
ASHTABULA      FAIR      45  39  79 CALM      30.28R
AKRON-CANTON   FAIR      50  40  68 CALM      30.26R
WOOSTER        FAIR      39  37  92 CALM      30.27R
MANSFIELD      FAIR      51  41  68 S5        30.25R
YOUNGSTOWN     FAIR      42  38  85 SE8       30.27R
$$

OHZ042-051>053-060>062-070>072-077>081-211200-
  SOUTHWEST OHIO

CITY           SKY/WX    TMP DP  RH WIND       PRES   REMARKS
CINC-COVINGTON MOCLDY    54  53  97 S3        30.21R
CINC-LUNKEN    FOG       48  48 100 CALM      30.24R VSB 1/2
HAMILTON       FAIR      47  47 100 CALM      30.23R
DAYTON         FAIR      53  52  96 S5        30.23R
WRIGHT-PAT AFB PTCLDY    50  50 100 CALM      30.22R
DAYTON GENERAL FAIR      55  50  83 S5        30.22R
WILMINGTON     FAIR      52  50  93 CALM      30.23R
$$

OHZ036-037-039>041-045>050-054>059-063>069-073>076-082>088-211200-
  CENTRAL AND SOUTHEAST OHIO

CITY           SKY/WX    TMP DP  RH WIND       PRES   REMARKS
COLUMBUS       FAIR      49  45  86 CALM      30.23S
OSU AIRPORT    FAIR      48  44  86 CALM      30.24R
BOLTON FIELD   NOT AVBL
RICKENBACK AFB FAIR      44  43  99 NE5       30.23R
NEWARK         FAIR      42  40  92 CALM      30.25R FOG
MARION         FAIR      49  41  74 S6        30.24R
LANCASTER      FAIR      41  40  96 CALM      30.24S
ZANESVILLE     FAIR      43  40  89 CALM      30.25R
NEW PHILLY     FAIR      42  40  92 CALM      30.27S
$$




USA.gov is the U.S. government's official web portal to all federal, state and local government web resources and services.